Regional Weather Roundup
Issued by NWS State College, PA

Home | Current Version | Previous Version | Text Only | Print | Product List | Glossary Off
Versions: 1 2 3 4 5 6 7 8 9 10 11 12 13 14 15 16 17 18 19 20 21 22 23 24 25 26 27 28 29 30 31 32 33 34 35 36 37 38 39 40 41 42 43 44 45 46 47 48 49 50

293
ASUS41 KCTP 270310
RWRCTP

REGIONAL WEATHER ROUNDUP
NATIONAL WEATHER SERVICE STATE COLLEGE PA
1100 PM EDT WED APR 26 2017

Note: "fair" indicates few or no clouds below 12,000 feet with no
significant weather and/or obstructions to visibility.

* = STATION THAT DOES NOT REPORT PRECIPITATION /E.G. RAIN...SNOW...ETC/
    THUNDER OR FOG.

PAZ002>004-007>009-013>016-020>023-029>032-270400-
WESTERN PENNSYLVANIA

CITY           SKY/WX    TMP DP  RH WIND       PRES   REMARKS
ERIE           CLEAR     69  55  60 S12       29.66S
MEADVILLE      CLEAR     67  55  65 SE3       29.70S
FRANKLIN*      CLEAR     64  54  68 SE7       29.73S
NEW CASTLE     FAIR      69  57  65 VRB5      29.70S
BEAVER COUNTY  NOT AVBL
BUTLER*        CLEAR     66  54  63 SE3       29.73S
PITTSBURGH INT PTCLDY    69  57  65 SE5       29.70S
PITTSBURGH     CLEAR     66  54  65 SE7       29.71R
INDIANA*       CLEAR     68  57  68 SE7       29.77S
LATROBE        CLEAR     63  57  82 CALM      29.74R
WASHINGTON CO* CLEAR     59  55  88 CALM      29.73S
$$

PAZ004>006-010>012-017>019-024>028-033>037-041-042-045-046-049>053-270400-
CENTRAL PENNSYLVANIA

CITY           SKY/WX    TMP DP  RH WIND       PRES   REMARKS
BRADFORD       CLEAR     64  55  72 SE9       29.77R
DUBOIS         CLEAR     63  54  72 SE10      29.76R
CLEARFIELD     CLEAR     63  56  78 CALM      29.78S
JOHNSTOWN      CLEAR     61  55  81 SE12      29.79S
ALTOONA        CLEAR     63  58  83 S10       29.81R
STATE COLLEGE  CLEAR     62  56  81 S3        29.80R
WILLIAMSPORT   CLEAR     63  57  81 N3        29.78R
SELINSGROVE    CLEAR     60  56  86 SW3       29.81R
FT INDIANTOWN  CLEAR     55  55 100 CALM      29.83R
CAPITAL CITY   CLEAR     59  55  87 CALM      29.82R
HARRISBURG     PTCLDY    60  57  89 E5        29.82R
YORK           CLEAR     56  55  97 CALM      29.83R
$$

PAZ038>040-043-044-047-048-054-055-060>062-067>071-270400-
EASTERN PENNSYLVANIA

CITY           SKY/WX    TMP DP  RH WIND       PRES   REMARKS
SCRANTON       CLEAR     63  56  78 E5        29.81R
MOUNT POCONO   CLOUDY    54  54 100 SE3       29.85R
ALLENTOWN      CLOUDY    64  56  75 SE3       29.83R
QUAKERTOWN*    CLOUDY    59  57  94 CALM      29.85R
READING        MOCLDY    62  59  90 S6        29.82R
LANCASTER      PTCLDY    56  56 100 CALM      29.83R FOG
COATESVILLE    CLOUDY    59  59 100 CALM      29.86R
POTTSTOWN      CLOUDY    57  55  93 CALM      29.85R
BLUE BELL      CLOUDY    61  55  82 CALM      29.86R
DOYLESTOWN     CLOUDY    60  58  92 CALM      29.84R
WILLOW GROVE   NOT AVBL
NORTH PHILA    CLOUDY    63  57  81 CALM      29.86R
PHILADELPHIA   CLOUDY    62  56  80 SE5       29.85R
$$




USA.gov is the U.S. government's official web portal to all federal, state and local government web resources and services.